This is the latest recevied weather packets stored in our database for station/object KE8KMM. If no packets are shown the sender has not sent any weather packets the latest 1 day(s).
| Time | Temp. | Humidity | Pressure | Rain* | Wind** | Luminosity | Snow |
|---|---|---|---|---|---|---|---|
| 1778066508 | 7.78° C | 96% | 1007.4 hPa | 0 mm | - | 5 W/m² | - |
| 1778065903 | 7.78° C | 96% | 1007.4 hPa | 0 mm | - | 3 W/m² | - |
| 1778065600 | 7.78° C | 96% | 1007.1 hPa | 0 mm | - | 3 W/m² | - |
| 1778064389 | 7.78° C | 96% | 1006.7 hPa | 0 mm | - | 0 W/m² | - |
| 1778064086 | 7.78° C | 96% | 1006.1 hPa | 0 mm | - | 0 W/m² | - |
| 1778062572 | 7.78° C | 95% | 1005.7 hPa | 0 mm | - | 0 W/m² | - |
| 1778061665 | 7.78° C | 95% | 1005.9 hPa | 0 mm | - | 0 W/m² | - |
| 1778061364 | 8.33° C | 96% | 1005.7 hPa | 0 mm | - | 0 W/m² | - |
| 1778061060 | 8.33° C | 96% | 1005.8 hPa | 0 mm | - | 0 W/m² | - |
| 1778060455 | 8.33° C | 95% | 1005.7 hPa | 1.78 mm | - | 0 W/m² | - |
| 1778060153 | 8.33° C | 95% | 1005.5 hPa | 0 mm | - | 0 W/m² | - |
| 1778059850 | 8.33° C | 95% | 1005.8 hPa | 1.27 mm | - | 0 W/m² | - |
| 1778059548 | 8.33° C | 95% | 1006.2 hPa | 1.27 mm | - | 0 W/m² | - |
| 1778058943 | 8.33° C | 95% | 1006.4 hPa | 3.05 mm | - | 0 W/m² | - |
| 1778058640 | 8.33° C | 95% | 1006.1 hPa | 4.32 mm | - | 0 W/m² | - |
| 1778058338 | 8.33° C | 95% | 1005.7 hPa | 3.05 mm | - | 0 W/m² | - |
| 1778058034 | 8.89° C | 96% | 1006 hPa | 3.56 mm | - | 0 W/m² | - |
| 1778057427 | 8.89° C | 96% | 1005.8 hPa | 3.05 mm | - | 0 W/m² | - |
| 1778056820 | 10° C | 96% | 1005.9 hPa | 4.83 mm | - | 0 W/m² | - |
| 1778056518 | 10° C | 96% | 1005.6 hPa | 1.78 mm | - | 0 W/m² | - |
| 1778056215 | 10° C | 96% | 1005.4 hPa | 1.27 mm | - | 0 W/m² | - |
| 1778055912 | 10° C | 96% | 1005.1 hPa | 1.27 mm | - | 0 W/m² | - |
| 1778055306 | 10° C | 96% | 1004.8 hPa | 0 mm | - | 0 W/m² | - |
| 1778054700 | 10° C | 96% | 1005 hPa | 3.05 mm | - | 0 W/m² | - |
| 1778054397 | 10.56° C | 96% | 1005 hPa | 4.32 mm | - | 0 W/m² | - |
* Rain latest hour (hover to see other rain measurements)
** Current wind speed in m/s (hover to see current wind gust speed)